Regional Weather Roundup
Issued by NWS

Home | Current Version | Previous Version | Text Only | Print | Product List | Glossary Off
Versions: 1 2 3 4 5 6 7 8 9 10 11 12 13 14 15 16 17 18 19 20 21 22 23 24 25 26 27 28 29 30 31 32 33 34 35 36 37 38 39 40 41 42 43 44 45 46 47 48 49 50

000
ASUS43 KIND 250759
RWRIN

WEATHER ROUNDUP FOR INDIANA
NATIONAL WEATHER SERVICE INDIANAPOLIS IN
300 AM EST SAT FEB 25 2017

NOTE: "FAIR" INDICATES FEW OR NO CLOUDS BELOW 12,000 FEET WITH NO
SIGNIFICANT WEATHER AND/OR OBSTRUCTIONS TO VISIBILITY.

* - STATION DOES NOT REPORT WEATHER SUCH AS PRECIPITATION OR FOG.

+ - STATION NOT QUALITY CONTROLLED BY THE NATIONAL WEATHER SERVICE.
    USE DATA WITH CAUTION...ESPECIALLY DEWPOINT AND RELATIVE
    HUMIDITY OBSERVATIONS.

INZ001>003-010>013-019-020-250900-
NORTHWEST INDIANA

CITY           SKY/WX    TMP DP  RH WIND       PRES   REMARKS
KNOX *+        CLOUDY    36  19  51 W13       29.58S
MICHIGAN CITY+ CLOUDY    34  34 100 W8        29.59R WCI  27
RENSSELAER +   CLOUDY    36  34  93 W15G23    29.62R

$$

LMZ046-743>745-250900-
SOUTHERN LAKE MICHIGAN

STATION/POSITION TIME  TEMP    WIND        PRES    WAVE
                       AIR SEA DIR/SP/G            HT
                 (UTC) (F)     (DEG/KT/KT) (MB)    (FT)
BURNS HARBOR     0740   35     260/ 18/ 21 1002.7S
MICHIGAN CITY    0730   34     240/ 22/ 23   N/A

$$

INZ004-005-014>016-021>024-250900-
NORTH CENTRAL INDIANA

CITY           SKY/WX    TMP DP  RH WIND       PRES   REMARKS
GOSHEN         CLOUDY    40  33  76 W12       29.56S
SOUTH BEND     CLOUDY    35  33  92 W12       29.57R WCI  27

$$

INZ006>009-017-018-025>027-250900-
NORTHEAST INDIANA

CITY           SKY/WX    TMP DP  RH WIND       PRES   REMARKS
ANGOLA *+      MOCLDY    39  37  93 W7        29.55S
FORT WAYNE     MOCLDY    41  35  79 SW9       29.60R
KENDALLVILLE + CLOUDY    40  35  84 SW7       29.56S

$$

INZ028-029-035-036-043>045-051>053-250900-
WEST CENTRAL INDIANA

CITY           SKY/WX    TMP DP  RH WIND       PRES   REMARKS
LAFAYETTE      CLOUDY    37  32  82 W14G24    29.63R
TERRE HAUTE    CLOUDY    37  26  64 W20G30    29.71R

$$

INZ030>032-037>040-046>048-054>057-064-065-250900-
CENTRAL INDIANA

CITY           SKY/WX    TMP DP  RH WIND       PRES   REMARKS
GREENWOOD *+   CLOUDY    42  32  67 W15G22    29.67S
INDIANAPOLIS   CLOUDY    40  31  70 W23G31    29.66S
-EAGLE CREEK   CLOUDY    41  31  67 W14G22    29.65S
KOKOMO +       CLOUDY    39  34  82 W22G28    29.62S
MT COMFORT *+  MOCLDY    39  32  75 W13G20    29.66S
SHELBYVILLE    CLOUDY    43  33  68 W7        29.66S

$$

INZ033-034-041-042-049-050-058-059-250900-
EAST CENTRAL INDIANA

CITY           SKY/WX    TMP DP  RH WIND       PRES   REMARKS
MUNCIE         PTCLDY    42  34  73 SW12      29.63F

$$

INZ060-061-067>069-081>083-085>088-250900-
SOUTHWEST INDIANA

CITY           SKY/WX    TMP DP  RH WIND       PRES   REMARKS
EVANSVILLE     PTCLDY    42  30  62 NW10G21   29.79R
HUNTINGBURG *+ CLEAR     41  32  70 W13       29.75R

$$

INZ062-063-066-070>080-084-089>092-250900-
SOUTH CENTRAL AND SOUTHEAST INDIANA

CITY           SKY/WX    TMP DP  RH WIND       PRES   REMARKS
BLOOMINGTON    CLOUDY    41  30  65 W18G25    29.69R
MADISON *+     CLEAR     45  32  61 W7        29.71S
SEYMOUR +      PTCLDY    43  34  70 W8        29.69F

$$





USA.gov is the U.S. government's official web portal to all federal, state and local government web resources and services.